This is the latest recevied weather packets stored in our database for station/object DJ2RF. If no packets are shown the sender has not sent any weather packets the latest 10 day(s).
| Time | Temp. | Humidity | Pressure | Rain* | Wind** | Luminosity | Snow |
|---|---|---|---|---|---|---|---|
| 1777669321 | 10.56° C | 59% | 1026.3 hPa | 0 mm | - | - | - |
| 1777667066 | 11.67° C | 56% | 1026.4 hPa | 0 mm | - | - | - |
| 1777666568 | 11.67° C | 56% | 1026.4 hPa | 0 mm | - | - | - |
| 1777665511 | 12.22° C | 57% | 1026.3 hPa | 0 mm | - | - | - |
| 1777664996 | 12.22° C | 56% | 1026.3 hPa | 0 mm | - | - | - |
| 1777663898 | 12.78° C | 55% | 1026.2 hPa | 0 mm | - | - | - |
| 1777663336 | 13.33° C | 53% | 1026.1 hPa | 0 mm | - | - | - |
| 1777660586 | 15° C | 49% | 1026 hPa | 0 mm | - | - | - |
| 1777660051 | 15.56° C | 45% | 1026 hPa | 0 mm | - | - | - |
| 1777659526 | 16.11° C | 44% | 1025.9 hPa | 0 mm | - | - | - |
| 1777659041 | 16.11° C | 44% | 1025.8 hPa | 0 mm | - | - | - |
| 1777658546 | 16.67° C | 44% | 1025.9 hPa | 0 mm | - | - | - |
| 1777656786 | 17.22° C | 42% | 1025.8 hPa | 0 mm | - | - | - |
| 1777655816 | 17.78° C | 41% | 1025.6 hPa | 0 mm | - | - | - |
| 1777654281 | 18.89° C | 40% | 1025.8 hPa | 0 mm | - | - | - |
| 1777653111 | 20° C | 38% | 1025.9 hPa | 0 mm | - | - | - |
| 1777652536 | 20.56° C | 38% | 1026 hPa | 0 mm | - | - | - |
| 1777651956 | 21.67° C | 37% | 1025.9 hPa | 0 mm | - | - | - |
| 1777650931 | 22.22° C | 37% | 1026 hPa | 0 mm | - | - | - |
| 1777650348 | 22.22° C | 38% | 1025.9 hPa | 0 mm | - | - | - |
| 1777649781 | 22.22° C | 33% | 1026.2 hPa | 0 mm | - | - | - |
| 1777649186 | 22.22° C | 35% | 1026.2 hPa | 0 mm | - | - | - |
| 1777648606 | 22.22° C | 35% | 1026.2 hPa | 0 mm | - | - | - |
| 1777648027 | 22.22° C | 37% | 1026.3 hPa | 0 mm | - | - | - |
| 1777647501 | 22.22° C | 37% | 1026.4 hPa | 0 mm | - | - | - |
* Rain latest hour (hover to see other rain measurements)
** Current wind speed in m/s (hover to see current wind gust speed)